Simultaneous Nadir Overpasses (SNOs) Predictions

Prediction of SNOs between GOES-16 and NOAA-19 Satellite Orbit:

Table of predicted SNOs for the next 14.0 days since TLE Epoch: 8/21/2020
Index Date Time (GOES-16) GOES-16 Lat,Lon NOAA-19 Lat,Lon Distance(km) Time Diff (sec)
1 08/22/2020 23:15:43 0.05, -75.19 -0.44, -77.20 229.98 80
2 08/23/2020 23:01:21 0.05, -75.19 0.23, -74.34 96.77 80
3 08/24/2020 22:49:40 0.06, -75.20 0.90, -71.49 423.50 80
4 08/26/2020 11:25:00 -0.05, -75.22 0.90, -79.30 466.65 80
5 08/27/2020 11:13:19 -0.05, -75.23 0.22, -76.45 139.69 80
6 08/28/2020 10:58:57 -0.06, -75.23 -0.46, -73.60 187.42 80
7 08/30/2020 23:22:35 0.06, -75.26 -0.70, -78.55 375.96 80
8 08/31/2020 23:10:54 0.06, -75.27 -0.03, -75.70 48.24 80
9 09/01/2020 22:56:32 0.07, -75.29 0.64, -72.84 279.71 80
10 09/04/2020 11:20:09 -0.07, -75.35 0.51, -77.79 278.91 80
